Location: Great Falls
(47.5000°N, 111.3000°W)
Time: 06:14:32
(UTC-06:00)

ISS - Pass Details

Date: 25 April 2025
Orbit: 416 x 420 km, 51.6° (Epoch: 15 May)

Event Time Altitude Azimuth Distance (km) Brightness Sun altitude
Exits shadow 03:29:32 16° 107° (ESE) 1,195 -1.3 -22.9°
Drops below altitude 10° 03:30:41 10° 90° (E) 1,494 -0.6 -22.8°
Sets 03:33:09 0° 73° (ENE) 2,362 0.9 -22.6°
